Location: Zlin
(49.2333°N, 17.6667°E)
Time: 11:53:25
(UTC+01:00)

ISS - Visible Passes

Search period start: 20 January 2018 00:00
Search period end: 30 January 2018 00:00
Orbit: 402 x 407 km, 51.6° (Epoch: 20 January)

Date Brightness Start Highest point End Pass type
(mag) Time Alt. Az. Time Alt. Az. Time Alt. Az.
25 Jan -1.3 18:12:54 10° SSE 18:13:26 11° SSE 18:13:26 11° SSE visible
26 Jan -1.8 18:54:45 10° SW 18:56:11 22° SSW 18:56:11 22° SSW visible
27 Jan -2.3 18:02:54 10° SSW 18:05:32 23° SE 18:06:11 21° ESE visible
27 Jan -0.6 19:38:26 10° WSW 19:38:51 13° WSW 19:38:51 13° WSW visible
28 Jan -1.6 17:11:33 10° S 17:13:21 14° SE 17:15:09 10° ESE visible
28 Jan -3.3 18:46:05 10° WSW 18:48:45 52° SSW 18:48:45 52° SSW visible
29 Jan -3.2 17:53:53 10° SW 17:56:59 41° SSE 17:58:36 23° E visible
29 Jan -1.1 19:30:09 10° W 19:31:15 19° W 19:31:15 19° W visible
